Location: Vihti�l�
(61.3833°N, 23.0667°E)
Time: 05:48:59
(UTC+00:00)

ATLAS 3B R/B - Pass Details

Date: 29 November 2020
Orbit: 1013 x 1182 km, 63.8° (Epoch: 08 January)

Event Time Altitude Azimuth Distance (km) Brightness Sun altitude
Exits shadow 01:43:19 42° 119° (ESE) 1,516 3.6 -36.7°
Drops below altitude 10° 01:47:42 10° 118° (ESE) 2,971 5.4 -36.2°
Sets 01:50:25 0° 119° (ESE) 3,952 6.1 -35.9°
